This demonstration page uses our WeatherBlox Daily Observations layout. Learn more.

Left ArrowRight Arrow

36.17497, -115.13722

Hourly Observations for March 8, 2019

Temp ( °F °C ) Dew Point ( °F °C ) Humidity (%) Winds ( mph kmh ) Pressure ( in mb ) Visibility ( mi km ) Precip ( " mm )
12:53 am 00:53 Clear 53 11.7 31 -0.6 43 43 SW 24 39 29.75 1007 10 16 0.00 0.00
1:53 am 01:53 Clear 52 11.1 30 -1.1 43 43 W 16 26 29.74 1007 10 16 0.00 0.00
2:53 am 02:53 Clear 50 10 32 0 50 50 SW 12 19 29.74 1007 10 16 0.00 0.00
3:53 am 03:53 Clear 49 9.4 30 -1.1 48 48 SSW 18 30 29.72 1006 10 16 0.00 0.00
4:53 am 04:53 Clear 48 8.9 27 -2.8 44 44 SSW 14 22 29.74 1007 10 16 0.00 0.00
5:53 am 05:53 Clear 49 9.4 26 -3.3 41 41 SW 15 24 29.75 1008 10 16 0.00 0.00
6:53 am 06:53 Sunny 49 9.4 29 -1.7 46 46 WNW 10 17 29.77 1008 10 16 0.00 0.00
7:53 am 07:53 Sunny 50 10 28 -2.2 43 43 E 3 6 29.80 1009 10 16 0.00 0.00
8:53 am 08:53 Sunny 53 11.7 26 -3.3 35 35 SW 14 22 29.80 1009 10 16 0.00 0.00
9:53 am 09:53 Partly Cloudy 55 12.8 27 -2.8 34 34 WNW 10 17 29.81 1009 10 16 0.00 0.00
10:53 am 10:53 Partly Cloudy 57 13.9 25 -3.9 29 29 NW 9 15 29.80 1009 10 16 0.00 0.00
11:53 am 11:53 Mostly Cloudy 56 13.3 27 -2.8 33 33 WNW 14 22 29.82 1010 10 16 0.00 0.00
12:53 pm 12:53 Mostly Cloudy 52 11.1 33 0.6 49 49 W 18 30 29.83 1010 10 16 0.00 0.00
1:53 pm 13:53 Mostly Sunny 55 12.8 31 -0.6 40 40 W 9 15 29.82 1010 10 16 0.00 0.00
2:53 pm 14:53 Mostly Cloudy 56 13.3 28 -2.2 34 34 NNW 8 13 29.82 1010 10 16 0.00 0.00
3:53 pm 15:53 Sunny 58 14.4 29 -1.7 33 33 NNW 7 11 29.82 1010 10 16 0.00 0.00
4:53 pm 16:53 Partly Cloudy 57 13.9 28 -2.2 33 33 WNW 7 11 29.82 1010 10 16 0.00 0.00
5:53 pm 17:53 Clear 56 13.3 25 -3.9 30 30 WSW 13 20 29.84 1010 10 16 0.00 0.00
6:53 pm 18:53 Clear 55 12.8 24 -4.4 30 30 SW 9 15 29.86 1011 10 16 0.00 0.00
7:53 pm 19:53 Clear 53 11.7 25 -3.9 34 34 SW 12 19 29.87 1011 10 16 0.00 0.00
8:53 pm 20:53 Clear 51 10.6 24 -4.4 35 35 SW 12 19 29.89 1012 10 16 0.00 0.00
9:53 pm 21:53 Clear 49 9.4 23 -5 36 36 SSW 12 19 29.89 1012 10 16 0.00 0.00
10:53 pm 22:53 Clear 48 8.9 23 -5 37 37 SW 5 7 29.90 1013 10 16 0.00 0.00
11:53 pm 23:53 Clear 46 7.8 25 -3.9 44 44 NNW 5 7 29.93 1013 10 16 0.00 0.00

Powered by AerisWeather